Location: Barcelona
(41.3830°N, 2.1830°E)
Time: 22:35:03
(UTC+01:00)

Hubble Space Telescope - Visible Passes

Search period start: 24 February 2020 00:00
Search period end: 05 March 2020 00:00
Orbit: 536 x 540 km, 28.5° (Epoch: 24 February)

Date Brightness Start Highest point End Pass type
(mag) Time Alt. Az. Time Alt. Az. Time Alt. Az.
24 Feb 3.2 19:15:06 10° SSW 19:16:59 13° S 19:18:52 10° SSE visible
24 Feb 3.5 20:55:39 10° SSW 20:56:05 11° SSW 20:56:05 11° SSW visible
25 Feb 3.2 19:04:12 10° SSW 19:06:13 13° S 19:08:14 10° SSE visible
25 Feb 3.4 20:45:15 10° SSW 20:46:08 11° SSW 20:46:08 11° SSW visible
26 Feb 3.4 20:35:17 10° SSW 20:35:49 10° SSW 20:36:13 10° S visible
